Year,Month,Day,Hour,Minute,Value (Times are PST for temperature in C)
2014,11,17,07,30,0.80
2014,11,17,07,31,0.80
2014,11,17,07,32,0.80
2014,11,17,07,33,0.80
2014,11,17,07,34,0.80
2014,11,17,07,35,0.80
2014,11,17,07,36,0.80
2014,11,17,07,37,0.80
2014,11,17,07,38,0.80
2014,11,17,07,39,0.80
2014,11,17,07,40,0.80
2014,11,17,07,41,0.80
2014,11,17,07,42,0.80
2014,11,17,07,43,0.80
2014,11,17,07,44,0.80
2014,11,17,07,45,0.80
2014,11,17,07,46,0.80
2014,11,17,07,47,0.80
2014,11,17,07,48,0.80
2014,11,17,07,49,0.80
2014,11,17,07,50,0.80
2014,11,17,07,51,0.80
2014,11,17,07,52,0.80
2014,11,17,07,53,0.80
2014,11,17,07,54,0.80
2014,11,17,07,55,0.80
2014,11,17,07,56,0.80
2014,11,17,07,57,0.80
2014,11,17,07,58,0.80
2014,11,17,07,59,0.80
2014,11,17,08,00,0.80
2014,11,17,09,24,3.60
2014,11,17,09,25,3.60
2014,11,17,09,26,3.70
2014,11,17,09,27,3.70
2014,11,17,09,28,3.80
2014,11,17,09,29,3.80
2014,11,17,09,30,3.90
2014,11,17,09,31,4.00
2014,11,17,09,32,4.00
2014,11,17,09,33,4.10
2014,11,17,09,34,4.20
2014,11,17,09,35,4.20
2014,11,17,09,36,4.20
2014,11,17,09,37,4.30
2014,11,17,09,38,4.30
2014,11,17,09,39,4.40
2014,11,17,09,40,4.40
2014,11,17,09,41,4.40
2014,11,17,09,42,4.40
2014,11,17,09,43,4.50
2014,11,17,09,44,4.50
2014,11,17,09,45,4.50
2014,11,17,09,46,4.50
2014,11,17,09,47,4.60
2014,11,17,09,48,4.60
2014,11,17,09,49,4.60
2014,11,17,09,50,4.60
2014,11,17,09,51,4.60
2014,11,17,09,52,4.70
2014,11,17,09,53,4.70
2014,11,17,09,54,4.70
2014,11,17,09,55,4.70
2014,11,17,09,56,4.70
2014,11,17,09,57,4.80
2014,11,17,09,58,4.80
2014,11,17,09,59,4.80
2014,11,17,10,00,4.90
2014,11,17,10,01,4.90
2014,11,17,10,02,4.90
2014,11,17,10,03,4.90
2014,11,17,10,04,4.90
2014,11,17,10,05,4.90
2014,11,17,10,06,5.00
2014,11,17,10,07,5.10
2014,11,17,10,08,5.10
2014,11,17,10,09,5.20
2014,11,17,10,10,5.20
2014,11,17,10,11,5.20
2014,11,17,10,12,5.10
2014,11,17,10,13,5.10
2014,11,17,10,14,5.10
2014,11,17,10,15,5.20
2014,11,17,10,16,5.20
2014,11,17,10,17,5.30
2014,11,17,10,18,5.30
2014,11,17,10,19,5.30
2014,11,17,10,20,5.30
2014,11,17,10,21,5.40
2014,11,17,10,22,5.40
2014,11,17,10,23,5.50
2014,11,17,10,24,5.50
2014,11,17,10,25,5.40
2014,11,17,10,26,5.30
2014,11,17,10,27,5.30
2014,11,17,10,28,5.30
2014,11,17,10,29,5.40
2014,11,17,10,30,5.40
2014,11,17,10,31,5.50
2014,11,17,10,32,5.50
2014,11,17,10,33,5.60
2014,11,17,10,34,5.60
2014,11,17,10,35,5.60
2014,11,17,10,36,5.60
2014,11,17,10,37,5.70
2014,11,17,10,38,5.70
2014,11,17,10,39,5.70
2014,11,17,10,40,5.70
2014,11,17,10,41,5.70
2014,11,17,10,42,5.70
2014,11,17,10,43,5.70
2014,11,17,10,44,5.80
2014,11,17,10,45,5.80
2014,11,17,10,46,5.80
2014,11,17,10,47,5.80
2014,11,17,10,48,5.80
2014,11,17,10,49,5.90
2014,11,17,10,50,5.90
2014,11,17,10,51,6.00
2014,11,17,10,52,6.10
2014,11,17,10,53,6.10
2014,11,17,10,54,6.10
2014,11,17,10,55,6.10
2014,11,17,10,56,6.20
2014,11,17,10,57,6.20
2014,11,17,10,58,6.20
2014,11,17,10,59,6.30
2014,11,17,11,00,6.30
2014,11,17,11,01,6.30
2014,11,17,11,02,6.40
2014,11,17,11,03,6.40
2014,11,17,11,04,6.50
2014,11,17,11,05,6.60
2014,11,17,11,06,6.60
2014,11,17,11,07,6.70
2014,11,17,11,08,6.70
2014,11,17,11,09,6.70
2014,11,17,11,10,6.70
2014,11,17,11,11,6.70
2014,11,17,11,12,6.80
2014,11,17,11,13,6.80
2014,11,17,11,14,6.80
2014,11,17,11,15,6.90
2014,11,17,11,16,6.90
2014,11,17,11,17,6.90
2014,11,17,11,18,7.00
2014,11,17,11,19,7.00
2014,11,17,11,20,7.00
2014,11,17,11,21,7.10
2014,11,17,11,22,7.10
2014,11,17,11,23,7.20
2014,11,17,11,24,7.30
2014,11,17,11,25,7.30
2014,11,17,11,26,7.30
2014,11,17,11,27,7.30
2014,11,17,11,28,7.30
2014,11,17,11,29,7.30
2014,11,17,11,30,7.30
2014,11,17,11,31,7.30
2014,11,17,11,32,7.30
2014,11,17,11,33,7.30
2014,11,17,11,34,7.30
2014,11,17,11,35,7.20
2014,11,17,11,36,7.20
2014,11,17,11,37,7.20
2014,11,17,11,38,7.20
2014,11,17,11,39,7.30
2014,11,17,11,40,7.30
2014,11,17,11,41,7.30
2014,11,17,11,42,7.30
2014,11,17,11,43,7.30
2014,11,17,11,44,7.30
2014,11,17,11,45,7.30
2014,11,17,11,46,7.30
2014,11,17,11,47,7.30
2014,11,17,11,48,7.40
2014,11,17,11,49,7.30
2014,11,17,11,50,7.30
2014,11,17,11,51,7.30
2014,11,17,11,52,7.30
2014,11,17,11,53,7.30
2014,11,17,11,54,7.30
2014,11,17,11,55,7.30
2014,11,17,11,56,7.40
2014,11,17,11,57,7.40
2014,11,17,11,58,7.40
2014,11,17,11,59,7.50
2014,11,17,12,00,7.50
2014,11,17,12,01,7.60
2014,11,17,12,02,7.50
2014,11,17,12,03,7.50
2014,11,17,12,04,7.50
2014,11,17,12,05,7.50
2014,11,17,12,06,7.50
2014,11,17,12,07,7.50
2014,11,17,12,08,7.50
2014,11,17,12,09,7.60
2014,11,17,12,10,7.50
2014,11,17,12,11,7.50
2014,11,17,12,12,7.50
2014,11,17,12,13,7.50
2014,11,17,12,14,7.50
2014,11,17,12,15,7.50
2014,11,17,12,16,7.40
2014,11,17,12,17,7.40
2014,11,17,12,18,7.40
2014,11,17,12,19,7.30
2014,11,17,12,20,7.30
2014,11,17,12,21,7.40
2014,11,17,12,22,7.40
2014,11,17,12,23,7.50
2014,11,17,12,24,7.50
2014,11,17,12,25,7.60
2014,11,17,12,26,7.70
2014,11,17,12,27,7.70
2014,11,17,12,28,7.80
2014,11,17,12,29,7.80
2014,11,17,12,30,7.80
2014,11,17,12,31,7.80
2014,11,17,12,32,7.80
2014,11,17,12,33,7.80
2014,11,17,12,34,7.90
2014,11,17,12,35,7.90
2014,11,17,12,36,8.00
2014,11,17,12,37,8.10
2014,11,17,12,38,8.20
2014,11,17,12,39,8.20
2014,11,17,12,40,8.30
2014,11,17,12,41,8.30
2014,11,17,12,42,8.10
2014,11,17,12,43,8.00
2014,11,17,12,44,7.80
2014,11,17,12,45,7.80
2014,11,17,12,46,7.80
2014,11,17,12,47,7.90
2014,11,17,12,48,8.00
2014,11,17,12,49,8.00
2014,11,17,12,50,8.20
2014,11,17,12,51,8.20
2014,11,17,12,52,8.20
2014,11,17,12,53,8.30
2014,11,17,12,54,8.40
2014,11,17,12,55,8.50
2014,11,17,12,56,8.50
2014,11,17,12,57,8.60
2014,11,17,12,58,8.60
2014,11,17,12,59,8.50
2014,11,17,13,00,8.50
2014,11,17,13,01,8.40
2014,11,17,13,02,8.40
2014,11,17,13,03,8.50
2014,11,17,13,04,8.50
2014,11,17,13,05,8.50
2014,11,17,13,06,8.50
2014,11,17,13,07,8.50
2014,11,17,13,08,8.50
2014,11,17,13,09,8.60
2014,11,17,13,10,8.70
2014,11,17,13,11,8.70
2014,11,17,13,12,8.80
2014,11,17,13,13,8.80
2014,11,17,13,14,8.80
2014,11,17,13,15,8.90
2014,11,17,13,16,8.90
2014,11,17,13,17,8.90
2014,11,17,13,18,8.90
2014,11,17,13,19,9.00
2014,11,17,13,20,9.00
2014,11,17,13,21,9.00
2014,11,17,13,22,9.00
2014,11,17,13,23,9.00
2014,11,17,13,24,9.00
2014,11,17,13,25,8.90
2014,11,17,13,26,8.90
2014,11,17,13,27,8.90
2014,11,17,13,28,8.80
2014,11,17,13,29,8.80
2014,11,17,13,30,8.80
2014,11,17,13,31,8.80
2014,11,17,13,32,8.80
2014,11,17,13,33,8.80
2014,11,17,13,34,8.70
2014,11,17,13,35,8.70
2014,11,17,13,36,8.70
2014,11,17,13,37,8.70
2014,11,17,13,38,8.70
2014,11,17,13,39,8.60
2014,11,17,13,40,8.50
2014,11,17,13,41,8.40
2014,11,17,13,42,8.40
2014,11,17,13,43,8.40
2014,11,17,13,44,8.30
2014,11,17,13,45,8.30
2014,11,17,13,46,8.20
2014,11,17,13,47,8.20
2014,11,17,13,48,8.20
2014,11,17,13,49,8.20
2014,11,17,13,50,8.20
2014,11,17,13,51,8.10
2014,11,17,13,52,8.10
2014,11,17,13,53,8.10
2014,11,17,13,54,8.10
2014,11,17,13,55,8.10
2014,11,17,13,56,8.00
2014,11,17,13,57,8.00
2014,11,17,13,58,8.00
2014,11,17,13,59,7.90
2014,11,17,14,00,7.90
2014,11,17,14,01,7.80
2014,11,17,14,02,7.80
2014,11,17,14,03,7.80
2014,11,17,14,04,7.80
2014,11,17,14,05,7.80
2014,11,17,14,06,7.80
2014,11,17,14,07,7.80
2014,11,17,14,08,7.80
2014,11,17,14,09,7.80
2014,11,17,14,10,7.80
2014,11,17,14,11,7.80
2014,11,17,14,12,7.90
2014,11,17,14,13,7.90
2014,11,17,14,14,7.90
2014,11,17,14,15,8.00
2014,11,17,14,16,8.00
2014,11,17,14,17,8.00
2014,11,17,14,18,8.00
2014,11,17,14,19,8.00
2014,11,17,14,20,7.90
2014,11,17,14,21,7.90
2014,11,17,14,22,7.80
2014,11,17,14,23,7.80
2014,11,17,14,24,7.70
2014,11,17,14,25,7.60
2014,11,17,14,26,7.60
2014,11,17,14,27,7.60
2014,11,17,14,28,7.50
2014,11,17,14,29,7.40
2014,11,17,14,30,7.40
2014,11,17,14,31,7.40
2014,11,17,14,32,7.40
2014,11,17,14,33,7.40
2014,11,17,14,34,7.30
2014,11,17,14,35,7.30
2014,11,17,14,36,7.20
2014,11,17,14,37,7.20
2014,11,17,14,38,7.10
2014,11,17,14,39,7.10
2014,11,17,14,40,7.10
2014,11,17,14,41,7.10
2014,11,17,14,42,7.10
2014,11,17,14,43,7.10
2014,11,17,14,44,7.10
2014,11,17,14,45,7.10
2014,11,17,14,46,7.10
2014,11,17,14,47,7.00
2014,11,17,14,48,7.00
2014,11,17,14,49,7.00
2014,11,17,14,50,7.00
2014,11,17,14,51,7.00
2014,11,17,14,52,7.00
2014,11,17,14,53,7.00
2014,11,17,14,54,7.00
2014,11,17,14,55,7.00
2014,11,17,14,56,6.90
2014,11,17,14,57,6.90
2014,11,17,14,58,6.90
2014,11,17,14,59,6.80
2014,11,17,15,00,6.80
2014,11,17,15,01,6.80
2014,11,17,15,02,6.80
2014,11,17,15,03,6.80
2014,11,17,15,04,6.80
2014,11,17,15,05,6.80
2014,11,17,15,06,6.80
2014,11,17,15,07,6.70
2014,11,17,15,08,6.60
2014,11,17,15,09,6.60
2014,11,17,15,10,6.60
2014,11,17,15,11,6.60
2014,11,17,15,12,6.60
2014,11,17,15,13,6.60
2014,11,17,15,14,6.60
2014,11,17,15,15,6.60
2014,11,17,15,16,6.60
2014,11,17,15,17,6.60
2014,11,17,15,18,6.60
2014,11,17,15,19,6.60
2014,11,17,15,20,6.60
2014,11,17,15,21,6.60
2014,11,17,15,22,6.60
2014,11,17,15,23,6.60
2014,11,17,15,24,6.60
2014,11,17,15,25,6.50
2014,11,17,15,26,6.40
2014,11,17,15,27,6.40
2014,11,17,15,28,6.40
2014,11,17,15,29,6.30
2014,11,17,15,30,6.30
2014,11,17,15,31,6.30
2014,11,17,15,32,6.20
2014,11,17,15,33,6.20
2014,11,17,15,34,6.20
2014,11,17,15,35,6.20
2014,11,17,15,36,6.20
2014,11,17,15,37,6.20
2014,11,17,15,38,6.10
2014,11,17,15,39,6.10
2014,11,17,15,40,6.10
2014,11,17,15,41,6.10
2014,11,17,15,42,6.10
2014,11,17,15,43,6.10
2014,11,17,15,44,6.10
2014,11,17,15,45,6.10
2014,11,17,15,46,6.10
2014,11,17,15,47,6.10
2014,11,17,15,48,6.00
2014,11,17,15,49,6.00
2014,11,17,15,50,6.00
2014,11,17,15,51,6.00
2014,11,17,15,52,6.00
2014,11,17,15,53,6.00
2014,11,17,15,54,6.00
2014,11,17,15,55,5.90
2014,11,17,15,56,5.90
2014,11,17,15,57,5.90
2014,11,17,15,58,5.80
2014,11,17,15,59,5.80
2014,11,17,16,00,5.70
2014,11,17,16,01,5.70
2014,11,17,16,02,5.70
2014,11,17,16,03,5.60
2014,11,17,16,04,5.60
2014,11,17,16,05,5.50
2014,11,17,16,06,5.40
2014,11,17,16,07,5.40
2014,11,17,16,08,5.40
2014,11,17,16,09,5.30
2014,11,17,16,10,5.30
2014,11,17,16,11,5.30
2014,11,17,16,12,5.30
2014,11,17,16,13,5.30
2014,11,17,16,14,5.30
2014,11,17,16,15,5.30
2014,11,17,16,16,5.20
2014,11,17,16,17,5.20
2014,11,17,16,18,5.20
2014,11,17,16,19,5.10
2014,11,17,16,20,5.10
2014,11,17,16,21,5.10
2014,11,17,16,22,5.10
2014,11,17,16,23,5.10
2014,11,17,16,24,5.10
2014,11,17,16,25,5.00
2014,11,17,16,26,4.90
2014,11,17,16,27,4.90
2014,11,17,16,28,4.90
2014,11,17,16,29,4.90
2014,11,17,16,30,4.90
2014,11,17,16,31,4.90
2014,11,17,16,32,4.90
2014,11,17,16,33,4.80
2014,11,17,16,34,4.80
2014,11,17,16,35,4.80
2014,11,17,16,36,4.70
2014,11,17,16,37,4.70
2014,11,17,16,38,4.70
2014,11,17,16,39,4.60
2014,11,17,16,40,4.60
2014,11,17,16,41,4.60
2014,11,17,16,42,4.60
2014,11,17,16,43,4.50
2014,11,17,16,44,4.50
2014,11,17,16,45,4.50
2014,11,17,16,46,4.50
2014,11,17,16,47,4.40
2014,11,17,16,48,4.40
2014,11,17,16,49,4.40
2014,11,17,16,50,4.30
2014,11,17,16,51,4.30
2014,11,17,16,52,4.30
2014,11,17,16,53,4.30
2014,11,17,16,54,4.20
2014,11,17,16,55,4.20
2014,11,17,16,56,4.20
2014,11,17,16,57,4.20
2014,11,17,16,58,4.20
2014,11,17,16,59,4.20
2014,11,17,17,00,4.10
2014,11,17,17,01,4.10
2014,11,17,17,02,4.10
2014,11,17,17,03,4.00
2014,11,17,17,04,4.00
2014,11,17,17,05,4.00
2014,11,17,17,06,4.00
2014,11,17,17,07,3.90
2014,11,17,17,08,3.90
2014,11,17,17,09,3.80
2014,11,17,17,10,3.80
2014,11,17,17,11,3.80
2014,11,17,17,12,3.80
2014,11,17,17,13,3.70
2014,11,17,17,14,3.70
2014,11,17,17,15,3.70
2014,11,17,17,16,3.60
2014,11,17,17,17,3.60
2014,11,17,17,18,3.60
2014,11,17,17,19,3.50
2014,11,17,17,20,3.50
2014,11,17,17,21,3.50
2014,11,17,17,22,3.50
2014,11,17,17,23,3.40
2014,11,17,17,24,3.40
2014,11,17,17,25,3.40
2014,11,17,17,26,3.40
2014,11,17,17,27,3.30
2014,11,17,17,28,3.30
2014,11,17,17,29,3.30
2014,11,17,17,30,3.30
2014,11,17,17,31,3.30
2014,11,17,17,32,3.30
2014,11,17,17,33,3.30
2014,11,17,17,34,3.20
2014,11,17,17,35,3.20
2014,11,17,17,36,3.20
2014,11,17,17,37,3.20
2014,11,17,17,38,3.20
2014,11,17,17,39,3.10
2014,11,17,17,40,3.10
2014,11,17,17,41,3.10
2014,11,17,17,42,3.10
2014,11,17,17,43,3.10
2014,11,17,17,44,3.10
2014,11,17,17,45,3.10
2014,11,17,17,46,3.00
2014,11,17,17,47,2.90
2014,11,17,17,48,2.90
2014,11,17,17,49,2.90
2014,11,17,17,50,2.90
2014,11,17,17,51,2.90
2014,11,17,17,52,2.90
2014,11,17,17,53,2.90
2014,11,17,17,54,2.90
2014,11,17,17,55,2.90
2014,11,17,17,56,2.90
2014,11,17,17,57,2.80
2014,11,17,17,58,2.80
2014,11,17,17,59,2.80
2014,11,17,18,00,2.80
2014,11,17,18,01,2.80
2014,11,17,18,02,2.80
2014,11,17,18,03,2.80
2014,11,17,18,04,2.80
2014,11,17,18,05,2.80
2014,11,17,18,06,2.80
2014,11,17,18,07,2.80
2014,11,17,18,08,2.80
2014,11,17,18,09,2.80
2014,11,17,18,10,2.80
2014,11,17,23,49,0.70
2014,11,17,23,50,0.70
2014,11,17,23,51,0.80
2014,11,17,23,52,0.80
2014,11,17,23,53,0.80
2014,11,17,23,54,0.80
2014,11,17,23,55,0.80
2014,11,17,23,56,0.80
2014,11,17,23,57,0.80
2014,11,17,23,58,0.80
2014,11,17,23,59,0.80
